Lapse_Rate
4.2 3.9 2.9 1.5 1.4 0.7 1.0 0.6 1.1 0.7 0.6 0.6 1.1 2.4 2.1 2.1 2.0 1.7 1.1 0.6 -0.4 -0.4 -0.7 -0.5 -0.2 -0.1 -0.1 -0.0 -0.1 -0.0 -0.8 -0.6 0.0 -0.7 -0.9 -0.9 -0.3 0.3 1.1 2.4 2.7 3.4 3.7
5.1 4.1 2.2 1.4 1.5 0.7 1.4 1.1 1.0 0.6 0.1 0.2 0.5 1.6 1.9 2.1 2.2 2.4 2.0 0.9 -0.2 -0.8 -0.3 -0.9 -0.8 -0.4 0.1 0.3 0.2 0.0 -0.2 0.1 1.5 1.7 1.1 2.0 1.3 -0.5 0.1 1.6 2.7 2.9 2.8
4.0 3.8 3.2 1.5 0.7 0.9 0.9 0.6 0.1 -0.3 -0.4 -0.1 0.7 1.2 2.1 2.3 2.3 1.4 0.9 0.7 0.3 -0.2 -0.4 -0.3 -0.3 0.6 0.9 0.6 0.7 1.1 0.9 1.1 3.0 4.2 5.0 7.0 6.1 3.6 1.1 1.5 1.1 1.3 2.0
4.4 3.9 2.3 1.0 0.3 0.6 0.1 0.1 0.3 -0.2 -0.4 -1.0 -0.9 -1.1 -0.7 -0.4 -0.5 -0.1 0.3 1.0 1.3 0.4 -0.1 0.2 0.7 1.2 1.3 1.5 1.7 2.6 2.6 3.2 3.1 4.1 6.6 6.4 6.8 7.3 5.1 2.1 2.4 1.7 2.5
3.6 3.1 2.3 1.5 0.7 1.4 0.3 -0.3 -0.4 -0.7 -1.2 -1.6 -1.8 -1.6 -0.9 -0.5 0.3 0.3 0.5 0.8 1.5 1.0 0.8 1.0 1.2 1.6 2.1 2.8 3.1 3.7 4.2 5.5 5.9 5.9 6.3 6.5 6.8 7.1 7.0 7.2 4.5 3.6 2.5
3.4 3.1 2.9 2.5 1.1 1.5 0.1 -1.0 -0.6 -0.6 -0.9 -1.1 -0.9 -0.8 -0.6 -0.4 -0.8 -0.3 0.5 1.0 1.9 2.3 1.9 2.1 2.8 3.3 3.3 4.0 5.3 6.0 6.1 5.6 5.7 5.7 6.0 6.1 6.5 6.4 5.9 6.3 6.7 7.1 6.2
3.6 3.6 3.3 2.1 1.7 1.9 0.7 -0.4 -0.2 -0.2 -0.7 -0.6 -0.3 -0.2 -0.6 -0.9 -0.6 0.3 1.3 1.3 3.0 3.1 4.0 4.9 5.0 5.5 5.7 6.4 6.7 6.2 6.0 5.4 5.4 5.2 4.9 5.4 5.2 5.0 5.5 6.1 6.5 6.9 7.3
3.9 3.5 3.3 2.8 2.5 2.6 1.4 0.7 1.0 0.7 0.3 0.4 0.5 0.3 0.3 0.2 0.3 2.2 2.4 2.8 4.5 5.1 4.6 4.5 5.0 5.2 5.0 5.7 6.2 5.3 5.2 5.6 4.9 4.8 4.1 4.4 4.5 4.3 4.3 4.6 5.1 5.9 7.0
3.6 3.9 4.1 3.3 2.6 2.2 1.4 0.6 1.0 1.4 1.8 2.2 2.1 2.2 2.4 2.7 2.7 3.4 4.1 4.0 4.4 4.8 3.2 3.5 3.2 4.5 4.3 4.6 6.0 5.6 5.6 5.9 5.7 4.8 4.7 4.6 5.2 5.3 4.6 4.7 5.3 6.5 7.1
3.9 3.9 3.7 3.0 2.5 2.0 1.3 0.7 1.4 2.0 3.3 3.9 3.9 5.0 4.4 4.2 4.4 4.5 4.1 3.8 3.9 3.5 2.8 3.4 3.4 4.1 4.5 4.3 5.2 5.2 5.4 5.1 3.9 4.3 4.3 4.4 4.6 6.1 5.9 5.2 5.4 5.5 5.6
4.1 4.4 3.5 3.0 2.3 1.8 1.4 0.9 1.9 3.2 4.7 5.5 5.5 5.9 5.1 4.5 4.1 3.2 3.2 3.2 3.6 2.8 1.9 2.0 2.5 3.5 4.8 4.8 4.8 4.8 4.2 4.0 3.5 2.9 3.6 3.9 4.3 5.0 5.8 5.1 5.0 5.1 5.7
4.6 4.5 3.3 2.7 2.4 2.0 1.6 1.3 2.4 3.1 4.2 6.2 7.0 4.8 4.7 4.4 3.9 3.3 3.4 3.1 3.0 2.6 1.9 2.3 2.2 3.5 4.5 4.1 4.4 4.2 4.0 2.8 3.9 3.0 3.3 3.5 4.5 4.5 5.5 5.3 5.0 4.6 5.6
4.8 4.0 3.5 3.3 3.1 2.8 2.4 2.4 2.8 4.2 5.2 6.4 5.2 4.8 4.5 4.2 3.5 3.0 3.3 3.0 2.4 1.8 1.3 1.5 1.9 3.0 3.9 4.2 4.2 3.3 2.8 2.1 2.2 2.8 2.5 3.2 3.2 3.6 5.1 5.5 4.8 4.0 6.3
5.3 4.8 4.3 4.0 3.5 3.2 2.7 3.2 3.7 5.3 6.6 6.4 5.2 4.6 4.0 3.8 3.2 3.0 2.6 2.5 2.6 1.7 1.2 1.2 1.8 3.2 4.6 4.6 4.1 3.4 2.9 2.6 2.6 2.7 3.2 3.1 1.7 2.2 4.5 4.8 4.7 5.3 6.2
6.9 5.6 4.6 4.4 4.2 3.6 3.7 4.7 5.2 6.4 6.6 6.4 5.4 4.0 3.6 3.3 3.0 2.7 1.9 2.0 2.4 1.8 1.9 2.0 2.3 3.7 4.9 4.6 3.1 3.1 2.7 2.7 2.7 2.8 3.5 4.3 3.1 3.6 4.9 5.0 4.1 4.0 4.8
5.1 5.5 5.9 4.8 4.4 3.8 3.9 4.9 5.6 6.4 6.0 4.9 4.3 4.2 3.5 3.1 2.8 2.2 1.9 1.9 1.6 1.7 2.0 1.7 2.7 3.6 6.0 6.8 3.6 3.7 3.2 3.1 2.9 3.0 3.7 4.5 3.8 3.2 3.4 3.7 3.5 4.1 4.2
6.3 6.9 4.8 4.6 4.6 4.5 4.1 4.4 4.5 4.9 4.8 4.3 4.4 3.9 3.4 3.1 2.5 2.3 2.5 2.1 1.1 1.2 1.0 1.5 2.0 2.9 4.8 6.1 4.2 3.5 2.7 2.4 2.3 2.2 3.5 4.7 4.8 3.3 3.0 2.6 2.1 1.7 3.1
4.4 6.8 4.5 5.4 4.4 3.8 4.0 4.1 4.5 4.4 4.6 4.3 3.7 3.1 3.0 2.5 2.3 2.3 2.1 1.2 0.7 -1.6 -1.7 0.3 1.0 2.2 4.6 4.8 3.9 3.5 2.1 1.8 2.0 2.4 4.9 4.3 5.4 3.6 2.7 2.5 1.4 0.2 0.0
4.6 3.2 3.1 2.5 3.0 3.7 3.7 3.9 3.9 3.9 3.7 3.4 3.1 3.1 2.6 1.9 2.1 1.4 1.2 0.8 1.1 -0.4 -1.8 -0.3 1.2 0.7 2.0 4.5 3.9 3.0 1.5 1.2 1.9 4.4 6.4 6.6 6.8 8.1 4.0 1.4 0.9 0.3 0.1
1.5 1.9 1.3 2.5 3.6 3.0 2.7 3.3 3.4 3.2 3.1 3.2 2.9 2.6 1.9 0.9 0.3 -0.0 2.4 2.0 1.4 -0.2 1.1 0.2 -0.6 3.4 0.4 5.8 4.4 2.3 0.8 0.9 2.6 3.4 4.1 9.2 8.6 8.8 4.1 0.7 0.6 -0.1 -0.5
0.5 1.4 2.3 2.4 2.6 2.1 2.6 2.4 2.5 3.1 3.3 3.3 3.2 2.9 2.9 2.8 2.8 2.4 1.7 4.7 3.3 0.8 -0.1 -0.5 -1.3 -1.0 2.1 5.3 8.1 5.8 -0.2 0.2 3.0 4.3 4.3 6.2 8.3 8.7 4.4 3.0 1.6 2.0 -0.7
1.8 2.9 2.2 2.3 2.8 3.1 3.1 2.0 2.9 2.9 3.3 3.3 2.8 2.5 3.2 5.2 5.6 3.9 5.0 5.7 4.5 1.7 -0.6 -0.6 -0.5 -1.2 -1.2 6.3 8.8 8.7 7.8 5.9 2.7 0.8 2.6 5.3 5.6 4.8 5.2 3.0 3.0 1.7 -0.7
3.3 3.3 2.6 2.8 3.8 3.8 3.5 2.9 2.9 3.7 3.4 3.1 2.6 3.3 5.1 5.7 5.4 4.6 5.0 4.9 4.3 3.5 3.1 2.8 -0.3 0.2 1.4 0.7 6.7 9.0 7.8 6.6 2.3 3.8 5.7 4.7 4.1 3.6 1.3 3.6 2.8 0.0 -0.4
2.8 3.3 3.0 2.7 2.8 3.6 4.0 3.5 4.3 4.6 4.4 4.1 4.3 5.2 4.9 4.7 4.8 4.9 5.0 4.4 4.1 3.5 3.6 2.6 0.7 -0.0 1.8 2.4 3.6 4.0 4.1 4.6 2.7 2.1 1.5 2.4 3.3 1.0 0.3 -0.4 0.1 0.3 -0.1
3.5 3.8 3.4 3.0 3.0 3.8 4.0 4.7 4.6 4.5 4.7 5.3 5.6 5.8 5.3 4.8 4.4 3.9 3.7 4.0 2.2 4.1 2.7 1.1 1.7 0.3 0.7 3.6 7.3 6.2 4.1 1.4 2.6 1.2 -1.0 -2.9 -4.2 -2.9 -1.2 -0.4 -0.2 0.6 0.9
4.2 4.2 4.0 3.9 3.9 4.2 4.7 5.2 4.9 4.7 4.8 5.6 5.3 5.0 4.8 4.4 3.8 3.8 4.0 6.0 5.4 5.3 5.0 5.1 4.1 2.1 7.7 9.1 9.0 9.0 7.4 4.9 3.7 0.2 -3.3 -3.0 -3.4 -1.5 0.0 0.1 0.3 1.3 1.6
Wind_Speed
8 10 9 9 9 8 8 7 7 6 5 3 3 3 3 3 6 13 18 17 17 16 15 11 11 12 7 7 9 6 9 3 7 4 5 4 4 3 2 2 3 4 6
11 10 8 7 7 8 7 7 7 7 5 3 2 2 1 4 4 9 14 16 15 17 15 12 6 8 6 8 9 9 6 3 7 3 3 4 4 5 4 2 3 6 4
16 12 9 8 7 8 7 8 7 7 7 7 4 3 3 3 4 6 6 10 14 15 15 13 10 8 6 6 8 8 9 6 6 8 3 3 3 7 3 4 3 5 3
14 12 11 8 8 7 7 8 7 7 7 7 5 6 4 4 3 3 3 6 11 13 13 11 11 10 6 7 7 7 6 6 6 5 5 3 3 3 5 3 4 6 5
17 14 11 11 8 8 7 7 8 8 7 7 6 5 5 3 2 3 5 6 9 13 14 13 11 8 6 6 7 7 6 5 5 4 3 5 5 5 5 9 3 5 4
13 12 11 11 8 7 7 7 8 7 7 7 7 6 6 4 4 4 4 4 5 6 13 13 12 11 8 7 6 7 7 6 5 5 5 5 3 4 3 3 10 12 5
15 14 14 11 9 8 8 7 8 7 7 6 6 5 6 6 6 4 4 4 4 5 7 10 8 8 12 11 9 7 7 7 6 7 6 5 5 5 5 6 7 5 5
14 14 13 12 10 9 8 8 7 7 6 6 5 4 6 4 3 5 4 3 3 4 9 10 11 13 14 12 10 6 6 7 7 10 8 6 6 6 6 5 6 5 3
13 14 12 12 10 8 8 8 7 6 6 5 4 4 4 5 4 4 4 3 3 3 7 11 9 11 12 13 8 6 8 7 8 9 9 7 6 6 6 6 6 4 3
12 12 12 12 8 8 8 8 7 7 5 5 4 4 5 4 4 3 4 5 6 9 9 9 10 9 11 12 9 8 9 8 8 7 10 9 8 6 5 5 5 5 3
14 13 12 12 11 9 8 7 7 6 5 4 4 5 5 4 4 4 5 6 8 9 8 8 7 8 9 9 7 8 10 11 11 10 11 11 11 8 6 6 6 6 5
13 13 13 12 12 11 9 8 7 7 6 5 4 5 6 5 5 6 6 9 8 12 8 9 8 8 9 8 8 10 10 11 10 11 11 12 10 12 10 8 10 8 7
13 11 13 13 12 12 10 9 7 7 6 5 6 6 6 6 6 7 8 9 8 8 10 8 8 8 8 7 9 10 9 10 11 10 12 12 12 12 10 10 9 9 7
15 13 12 13 13 12 11 9 7 6 8 8 7 6 6 7 7 7 8 9 9 8 8 8 7 7 8 9 10 10 10 10 10 10 10 12 13 13 11 10 10 9 7
14 16 16 14 14 13 11 9 7 9 10 10 8 6 7 8 8 8 9 7 8 7 9 8 8 7 8 6 9 9 10 10 10 11 11 12 17 19 15 7 9 11 9
19 20 16 17 17 16 13 11 8 9 11 11 8 7 8 8 8 8 8 8 7 7 8 8 9 8 8 18 19 10 8 10 11 11 10 10 18 15 18 20 22 18 11
17 20 19 19 16 15 14 12 10 11 11 10 8 7 8 8 8 8 8 8 7 7 7 7 6 9 9 16 18 16 7 8 8 8 9 11 11 16 11 17 20 19 23
22 19 16 16 16 16 13 13 13 12 12 9 9 8 8 8 8 8 7 6 5 4 3 5 6 6 10 17 18 17 9 7 8 8 9 7 10 15 14 13 12 12 12
15 15 18 20 16 15 15 14 13 13 12 10 9 8 8 8 8 6 5 5 7 3 4 3 6 7 5 18 17 10 5 6 7 7 8 7 9 23 24 11 11 10 11
15 19 18 16 16 14 16 15 13 12 10 10 9 8 8 8 7 6 7 3 4 4 4 5 5 13 5 18 18 12 3 5 4 6 7 23 16 24 25 11 11 11 11
17 17 17 17 15 15 15 15 13 11 10 10 9 9 8 7 6 5 4 8 8 5 3 3 4 6 8 8 15 15 3 2 3 5 5 7 22 23 24 23 13 14 8
16 15 15 14 11 14 14 13 12 11 11 11 10 8 7 5 4 5 5 9 9 5 3 3 4 4 7 12 14 14 14 13 5 3 3 10 21 22 23 18 25 25 12
11 12 15 14 12 12 14 14 12 13 12 11 9 7 6 5 6 7 8 7 7 6 4 3 2 3 3 4 9 13 15 17 5 7 15 20 21 20 15 22 23 14 8
11 11 14 13 12 12 13 13 13 13 12 12 10 8 8 7 7 5 5 6 5 5 5 3 2 2 3 3 4 6 10 13 11 13 13 13 13 14 10 8 12 10 6
9 10 12 12 12 12 12 13 13 13 12 11 10 10 7 7 6 5 4 5 2 6 5 2 2 3 2 2 8 8 5 3 7 8 5 4 4 4 5 5 6 7 7
9 9 10 12 12 12 13 13 12 13 13 11 9 8 7 7 7 7 6 14 14 14 11 9 4 1 7 9 12 14 14 15 15 6 4 4 4 5 6 6 6 7 8
Wind_Direction
151 126 120 112 107 90 84 82 65 36 32 4 358 17 31 28 43 42 41 50 39 31 31 25 17 14 15 15 3 340 352 347 346 322 333 303 288 298 278 251 242 250 227
146 133 126 107 99 100 98 87 75 58 41 36 2 8 357 59 54 45 46 44 42 35 28 20 12 13 8 10 5 5 348 341 349 336 285 323 330 356 321 25 34 28 344
153 149 135 133 127 111 105 107 93 71 50 36 24 8 29 44 31 36 31 43 46 40 31 21 8 17 14 7 357 1 358 342 329 332 291 325 314 337 310 334 33 49 6
155 150 142 137 123 111 101 100 89 80 67 52 51 51 51 46 13 19 25 30 34 36 29 21 15 15 10 6 355 353 342 337 331 330 345 298 295 309 310 315 327 11 1
156 153 149 142 127 123 119 111 99 86 76 65 62 57 55 53 21 14 21 31 30 30 23 20 11 10 7 360 351 343 339 349 337 347 329 318 308 263 263 289 311 347 3
151 146 142 135 124 114 109 106 100 85 80 70 62 70 76 74 49 29 36 17 33 21 21 19 15 11 11 7 354 7 7 1 352 349 340 331 322 325 309 298 309 308 319
155 151 149 137 132 121 119 112 102 91 91 86 75 75 83 71 59 47 39 22 29 29 20 19 21 18 12 11 15 15 17 10 11 3 351 333 345 332 308 295 301 300 315
158 153 150 145 133 125 114 114 111 105 100 90 87 71 67 71 59 56 45 25 14 26 21 27 25 23 18 8 21 23 24 22 24 14 3 349 348 339 330 315 318 306 285
157 156 143 140 131 126 119 125 118 113 113 128 105 88 90 89 78 68 64 33 349 24 53 37 28 26 25 12 29 26 24 35 23 15 3 3 348 348 345 331 321 311 320
154 149 141 137 135 131 126 123 124 128 136 132 122 128 118 113 107 98 79 50 7 44 44 36 26 17 25 26 32 37 28 34 33 21 5 4 357 351 356 357 346 359 336
158 146 142 145 142 135 134 130 131 137 150 149 155 153 142 127 98 67 57 54 59 61 56 35 23 14 25 23 44 53 39 32 47 24 8 4 2 358 5 6 359 2 354
154 145 144 148 148 145 146 145 152 151 170 176 133 103 102 90 83 68 63 60 69 54 53 45 30 21 24 21 44 46 39 42 38 28 16 9 9 11 7 9 10 4 7
153 147 153 160 159 154 155 154 156 167 170 122 113 99 96 91 83 71 65 61 80 64 48 41 34 22 19 25 69 54 45 44 40 28 22 17 16 16 7 9 10 6 358
172 160 167 169 166 158 158 161 167 164 135 120 106 104 95 93 85 80 72 66 77 65 54 41 29 25 39 53 67 58 53 50 44 33 28 31 27 23 8 17 9 9 3
183 181 177 176 161 155 155 159 149 140 131 117 111 110 102 95 89 82 74 71 70 73 55 49 37 34 41 69 66 62 53 48 46 40 34 34 37 34 30 23 14 17 18
190 189 184 168 161 158 160 164 149 138 121 119 122 118 102 101 98 91 83 78 72 67 60 47 50 44 57 72 72 71 60 50 43 42 33 40 37 34 32 34 33 31 31
199 195 179 171 161 154 156 162 140 130 124 122 130 121 113 110 103 100 97 91 81 73 55 42 41 59 62 70 71 68 58 49 36 26 31 37 40 32 28 30 31 29 33
194 179 160 160 156 153 152 139 138 132 128 131 133 126 120 115 111 107 110 100 88 67 50 37 29 51 66 72 72 67 51 39 30 24 27 21 44 39 32 31 30 24 22
172 160 157 156 152 145 139 135 132 129 127 128 134 134 128 121 117 121 128 111 102 67 42 20 39 39 55 72 73 55 34 26 19 23 20 39 43 47 39 32 30 23 22
139 146 145 143 142 140 136 136 135 127 133 140 142 136 128 125 128 139 135 116 96 89 71 40 20 46 15 80 72 60 33 29 18 16 9 43 49 47 46 38 33 29 7
131 134 137 143 142 137 139 136 130 134 140 139 137 130 129 132 140 150 116 130 115 97 67 55 18 24 34 58 79 73 59 58 30 36 24 41 39 44 43 42 38 35 5
131 137 133 132 128 136 136 129 131 141 143 141 134 130 130 139 145 116 112 138 127 106 71 50 26 7 10 57 65 68 75 65 57 24 22 46 48 39 43 39 36 29 18
132 133 131 126 134 139 136 132 140 144 143 137 138 137 128 108 112 107 114 113 120 125 111 83 39 358 354 7 32 57 80 70 51 53 62 57 48 44 29 39 33 21 23
138 139 136 137 134 136 137 137 146 145 143 141 146 132 121 115 103 98 110 120 126 120 120 108 61 358 357 353 11 50 64 69 62 53 48 47 46 31 21 21 21 17 16
143 146 146 145 141 140 143 147 147 145 146 143 136 135 129 121 114 95 111 117 82 132 139 164 139 99 29 339 99 106 94 65 77 67 41 28 17 15 20 22 15 21 16
149 147 147 146 146 148 150 152 149 148 151 149 139 142 134 127 127 121 115 117 123 130 133 136 126 241 93 73 76 79 75 76 76 56 46 26 21 28 25 20 13 18 18